TimeCDT,TemperatureF,Dew PointF,Humidity,Sea Level PressureIn,VisibilityMPH,Wind Direction,Wind SpeedMPH,Gust SpeedMPH,PrecipitationIn,Events,Conditions,WindDirDegrees,DateUTC
12:56 AM,48.0,46.9,96,30.19,10.0,Calm,Calm,-,N/A,,Clear,0,2011-10-04 05:56:00
1:56 AM,48.0,46.0,93,30.20,10.0,Calm,Calm,-,N/A,,Clear,0,2011-10-04 06:56:00
2:56 AM,48.0,46.0,93,30.20,10.0,Calm,Calm,-,N/A,,Clear,0,2011-10-04 07:56:00
3:56 AM,46.0,45.0,96,30.20,8.0,Calm,Calm,-,N/A,,Clear,0,2011-10-04 08:56:00
4:56 AM,45.0,44.1,97,30.21,7.0,NE,3.5,-,N/A,,Clear,40,2011-10-04 09:56:00
5:03 AM,44.6,44.6,100,30.21,1.8,NE,3.5,-,N/A,,Clear,40,2011-10-04 10:03:00
5:10 AM,46.4,44.6,93,30.21,4.0,Calm,Calm,-,N/A,,Clear,0,2011-10-04 10:10:00
5:30 AM,44.6,44.6,100,30.21,1.5,Calm,Calm,-,N/A,,Clear,0,2011-10-04 10:30:00
5:51 AM,44.6,44.6,100,30.21,3.0,ENE,3.5,-,N/A,,Clear,60,2011-10-04 10:51:00
5:56 AM,45.0,45.0,100,30.22,4.0,Calm,Calm,-,N/A,,Clear,0,2011-10-04 10:56:00
6:04 AM,44.6,44.6,100,30.21,2.5,Calm,Calm,-,N/A,,Clear,0,2011-10-04 11:04:00
6:11 AM,42.8,42.8,100,30.21,3.0,Calm,Calm,-,N/A,,Clear,0,2011-10-04 11:11:00
6:13 AM,44.6,44.6,100,30.21,1.5,Calm,Calm,-,N/A,,Partly Cloudy,0,2011-10-04 11:13:00
6:23 AM,44.6,44.6,100,30.21,4.0,Calm,Calm,-,N/A,,Clear,0,2011-10-04 11:23:00
6:56 AM,44.1,43.0,96,30.23,9.0,Calm,Calm,-,N/A,,Clear,0,2011-10-04 11:56:00
7:06 AM,42.8,42.8,100,30.22,1.2,Calm,Calm,-,N/A,,Clear,0,2011-10-04 12:06:00
7:36 AM,42.8,42.8,100,30.22,2.0,Calm,Calm,-,N/A,,Clear,0,2011-10-04 12:36:00
7:45 AM,44.6,42.8,93,30.22,5.0,Calm,Calm,-,N/A,,Clear,0,2011-10-04 12:45:00
7:56 AM,46.9,45.0,93,30.23,8.0,Calm,Calm,-,N/A,,Clear,0,2011-10-04 12:56:00
8:56 AM,54.0,48.9,83,30.24,10.0,Calm,Calm,-,N/A,,Clear,0,2011-10-04 13:56:00
9:56 AM,61.0,50.0,67,30.24,10.0,South,6.9,-,N/A,,Clear,180,2011-10-04 14:56:00
10:56 AM,66.9,50.0,54,30.24,10.0,South,4.6,-,N/A,,Unknown,190,2011-10-04 15:56:00
11:56 AM,73.0,48.0,41,30.22,10.0,SSE,5.8,-,N/A,,Clear,160,2011-10-04 16:56:00
12:56 PM,75.9,46.0,35,30.19,10.0,South,8.1,-,N/A,,Clear,190,2011-10-04 17:56:00
1:56 PM,77.0,43.0,30,30.17,10.0,South,9.2,20.7,N/A,,Clear,170,2011-10-04 18:56:00
2:56 PM,78.1,42.1,28,30.14,10.0,SSE,10.4,-,N/A,,Clear,150,2011-10-04 19:56:00
3:56 PM,79.0,44.1,29,30.13,10.0,SSE,6.9,-,N/A,,Clear,160,2011-10-04 20:56:00
4:56 PM,77.0,44.1,31,30.12,10.0,SSE,11.5,-,N/A,,Clear,160,2011-10-04 21:56:00
5:56 PM,75.0,46.0,36,30.12,10.0,SSE,8.1,-,N/A,,Clear,160,2011-10-04 22:56:00
6:56 PM,69.1,46.0,44,30.12,10.0,SSE,4.6,-,N/A,,Clear,160,2011-10-04 23:56:00
7:56 PM,64.4,46.4,52,30.12,10.0,Calm,Calm,-,N/A,,Clear,0,2011-10-05 00:56:00
8:56 PM,64.9,46.9,52,30.12,10.0,SSE,5.8,-,N/A,,Clear,160,2011-10-05 01:56:00
9:56 PM,64.0,46.0,52,30.13,10.0,South,5.8,-,N/A,,Clear,170,2011-10-05 02:56:00
10:56 PM,59.0,46.9,64,30.13,10.0,Calm,Calm,-,N/A,,Clear,0,2011-10-05 03:56:00
11:56 PM,53.6,46.4,77,30.13,10.0,Calm,Calm,-,N/A,,Clear,0,2011-10-05 04:56:00